Weather reports worldwide

Advertisment
Pembrey Sands, United Kingdom (3605): temperature & dewpoint: 13.02.2020 11:00:00 - 19.02.2020 11:00:00 (GMT)Pembrey Sands, United Kingdom (3605): wind speed & gusts: 13.02.2020 11:00:00 - 19.02.2020 11:00:00 (GMT)Pembrey Sands, United Kingdom (3605): wind direction: 13.02.2020 11:00:00 - 19.02.2020 11:00:00 (GMT)Pembrey Sands, United Kingdom (3605): reduced air pressure: 13.02.2020 11:00:00 - 19.02.2020 11:00:00 (GMT)Pembrey Sands, United Kingdom (3605): visibility: 13.02.2020 11:00:00 - 19.02.2020 11:00:00 (GMT)Pembrey Sands, United Kingdom (3605): precipitation: 13.02.2020 11:00:00 - 19.02.2020 11:00:00 (GMT)
Date & Time tt [°C] td [°C] ff [km/h] ff [kn] fx [km/h] fx [kn] dd ppp [hPa] vv [km] rr [mm]
19.02.2020 11:00:00 8,3 7,6 31 17 46 25 SSW 1019,3 5 -
19.02.2020 10:00:00 7,9 7,0 31 17 - - SSW 1019,9 7 0,2
19.02.2020 09:00:00 7,2 5,9 24 13 - - SW 1020,6 6 0,2
19.02.2020 08:00:00 7,1 4,9 29 16 - - W 1020,8 7 0,0
19.02.2020 07:00:00 7,2 3,4 35 19 46 25 W 1020,8 13 0,0
19.02.2020 06:00:00 7,1 3,7 29 16 - - W 1021,0 10 -
19.02.2020 05:00:00 6,7 2,9 28 15 - - W 1021,0 9 -
19.02.2020 04:00:00 6,5 2,8 34 18 - - W 1021,2 9 0,0
19.02.2020 03:00:00 6,4 2,8 37 20 46 25 W 1020,8 9 0,0
19.02.2020 02:00:00 6,3 2,4 34 18 - - W 1020,9 9 0,0
19.02.2020 01:00:00 5,7 1,6 34 18 50 27 W 1021,0 17 0,0
19.02.2020 00:00:00 5,6 2,2 34 18 - - W 1020,3 12 0,0
18.02.2020 23:00:00 5,4 1,4 35 19 48 26 W 1019,4 25 0,0
18.02.2020 22:00:00 5,7 1,4 37 20 55 30 W 1018,9 30 0,0
18.02.2020 21:00:00 5,9 1,8 42 23 57 31 W 1018,2 28 0,0
18.02.2020 20:00:00 6,6 2,7 44 24 59 32 W 1017,3 30 0,2
18.02.2020 19:00:00 6,9 3,7 37 20 48 26 W 1016,3 19 0,0
18.02.2020 18:00:00 6,3 3,5 41 22 65 35 WNW 1015,7 45 0,0
18.02.2020 17:00:00 8,2 5,6 37 20 70 38 W 1015,4 8 0,0
18.02.2020 16:00:00 8,7 5,6 52 28 68 37 W 1015,4 8 0,2
18.02.2020 15:00:00 7,0 5,3 44 24 80 43 W 1015,8 7 3,0
18.02.2020 14:00:00 9,0 6,9 55 30 68 37 SW 1016,3 5 0,2
18.02.2020 13:00:00 9,1 6,9 50 27 61 33 SW 1017,5 6 0,0
18.02.2020 12:00:00 9,2 6,1 44 24 57 31 WSW 1018,7 9 0,0
18.02.2020 11:00:00 8,0 5,9 44 24 78 42 WSW 1018,6 12 0,0
18.02.2020 10:00:00 8,6 6,4 46 25 65 35 WSW 1018,9 8 -
18.02.2020 09:00:00 8,4 6,1 44 24 76 41 WSW 1018,6 12 0,2
18.02.2020 08:00:00 8,3 5,6 52 28 65 35 WSW 1018,6 12 0,0
18.02.2020 07:00:00 7,6 5,2 46 25 57 31 WSW 1018,7 12 0,6
18.02.2020 06:00:00 7,8 4,6 39 21 54 29 WSW 1019,0 9 -
18.02.2020 05:00:00 7,2 3,7 37 20 50 27 W 1019,1 9 0,0
18.02.2020 04:00:00 7,1 4,2 37 20 63 34 W 1018,9 9 0,8
18.02.2020 03:00:00 7,3 3,9 31 17 46 25 W 1019,1 9 0,0
18.02.2020 02:00:00 7,4 3,4 35 19 46 25 W 1019,0 11 0,0
18.02.2020 01:00:00 7,3 3,3 37 20 48 26 W 1018,9 8 0,0
18.02.2020 00:00:00 7,4 2,6 41 22 50 27 W 1018,6 10 -
17.02.2020 23:00:00 7,0 2,6 29 16 48 26 W 1018,1 10 0,0
17.02.2020 22:00:00 7,1 2,4 34 18 46 25 W 1017,5 12 0,0
17.02.2020 21:00:00 6,9 3,1 26 14 - - W 1016,7 12 0,0
17.02.2020 20:00:00 6,8 2,2 35 19 54 29 W 1016,4 24 0,0
17.02.2020 19:00:00 7,1 2,3 35 19 55 30 W 1015,6 21 0,0
17.02.2020 18:00:00 7,5 2,2 39 21 61 33 W 1014,4 24 0,0
17.02.2020 17:00:00 7,8 2,8 42 23 68 37 W 1013,0 16 0,0
17.02.2020 16:00:00 8,3 3,9 48 26 76 41 W 1012,2 7 0,0
17.02.2020 15:00:00 9,1 4,6 46 25 63 34 W 1010,8 7 0,2
17.02.2020 14:00:00 9,2 4,0 50 27 61 33 W 1010,2 8 0,0
17.02.2020 13:00:00 9,4 4,9 42 23 61 33 W 1009,6 7 0,0
17.02.2020 12:00:00 9,5 5,1 42 23 61 33 W 1008,7 8 0,0
17.02.2020 11:00:00 9,3 5,1 42 23 63 34 W 1007,5 9 0,0
17.02.2020 10:00:00 8,9 5,7 39 21 54 29 W 1005,9 7 0,0
17.02.2020 09:00:00 8,2 5,8 41 22 61 33 W 1004,6 7 0,0
17.02.2020 08:00:00 7,7 6,2 55 30 76 41 WSW 1003,6 7 0,2
17.02.2020 07:00:00 7,7 4,6 67 36 83 45 WSW 1002,6 9 0,0
17.02.2020 06:00:00 6,7 3,8 67 36 89 48 WSW 1003,0 13 0,4
17.02.2020 05:00:00 7,8 3,2 61 33 81 44 WSW 1002,9 10 0,0
17.02.2020 04:00:00 8,0 2,9 65 35 89 48 WSW 1002,6 13 0,2
17.02.2020 03:00:00 7,5 4,0 67 36 96 52 SW 1002,9 9 0,0
17.02.2020 02:00:00 8,3 3,8 70 38 93 50 SW 1002,9 8 0,0
17.02.2020 01:00:00 8,3 2,8 72 39 102 55 WSW 1003,0 8 0,0
17.02.2020 00:00:00 8,7 2,6 72 39 93 50 SW 1002,0 8 0,0
16.02.2020 23:00:00 8,4 2,7 72 39 93 50 WSW 1001,4 9 0,0
16.02.2020 22:00:00 7,5 2,6 74 40 93 50 WSW 1000,6 8 0,0
16.02.2020 21:00:00 7,3 2,2 70 38 107 58 WSW 999,2 13 0,2
16.02.2020 20:00:00 7,2 2,8 72 39 93 50 WSW 998,8 13 0,0
16.02.2020 19:00:00 5,8 3,1 67 36 106 57 W 997,2 19 0,4
16.02.2020 18:00:00 5,4 4,0 85 46 133 72 WSW 996,2 2,3 0,4
16.02.2020 17:00:00 8,7 2,9 70 38 91 49 WSW 994,4 11 0,0
16.02.2020 16:00:00 9,4 4,2 63 34 80 43 WSW 993,4 10 0,0
16.02.2020 15:00:00 9,3 4,5 65 35 81 44 WSW 992,5 10 0,0
16.02.2020 14:00:00 9,2 4,5 63 34 100 54 WSW 992,0 7 0,0
16.02.2020 13:00:00 7,9 2,9 78 42 107 58 WSW 991,7 9 0,4
16.02.2020 12:00:00 7,5 4,8 70 38 96 52 WSW 991,5 6 0,4
16.02.2020 11:00:00 9,2 5,1 65 35 83 45 SW 990,4 5 0,0
16.02.2020 10:00:00 9,0 6,8 59 32 87 47 WSW 990,2 2,0 0,6
16.02.2020 09:00:00 9,3 6,9 55 30 81 44 SW 989,8 5 0,2
16.02.2020 08:00:00 9,2 7,7 52 28 67 36 SSW 989,7 6 0,0
16.02.2020 07:00:00 8,8 7,4 48 26 67 36 SSW 989,3 6 0,0
16.02.2020 06:00:00 8,3 6,7 52 28 70 38 SW 989,3 8 1,6
16.02.2020 05:00:00 8,3 7,6 41 22 76 41 W 988,8 4,4 1,0
16.02.2020 04:00:00 8,8 8,6 39 21 63 34 WSW 988,1 - 1,4
16.02.2020 03:00:00 9,1 8,9 34 18 55 30 SW 988,0 1,1 2,0
16.02.2020 02:00:00 9,2 9,1 41 22 52 28 WSW 988,3 - 2,8
16.02.2020 01:00:00 9,1 8,9 35 19 93 50 SW 988,2 - 3,0
16.02.2020 00:00:00 10,9 10,6 76 41 100 54 SSW 988,1 8 3,2
15.02.2020 23:00:00 11,0 10,6 80 43 96 52 SSW 987,9 - 4,0
15.02.2020 22:00:00 10,6 10,3 63 34 74 40 SSW 990,0 - 3,4
15.02.2020 21:00:00 10,7 10,0 57 31 80 43 SW 991,6 - 1,2
15.02.2020 20:00:00 10,8 10,0 54 29 83 45 SW 992,7 - 0,0
15.02.2020 19:00:00 11,1 10,5 72 39 106 57 SW 992,4 - 0,0
15.02.2020 18:00:00 11,2 10,6 81 44 104 56 SSW 990,7 - 0,2
15.02.2020 17:00:00 11,0 10,4 81 44 106 57 SSW 990,1 - 0,0
15.02.2020 16:00:00 10,8 10,4 81 44 106 57 SSW 990,4 - 0,4
15.02.2020 15:00:00 11,0 9,8 83 45 100 54 SSW 991,6 6 0,2
15.02.2020 14:00:00 10,7 10,0 72 39 93 50 SSW 993,8 2,1 3,0
15.02.2020 13:00:00 10,8 9,3 72 39 98 53 SSW 995,7 3,0 0,0
15.02.2020 12:00:00 10,7 9,7 68 37 91 49 S 997,5 3,6 0,2
15.02.2020 11:00:00 10,4 9,9 68 37 83 45 S 998,6 2,5 2,2
15.02.2020 10:00:00 10,3 9,9 65 35 81 44 SSW 1000,4 2,2 1,4
15.02.2020 09:00:00 10,3 9,7 65 35 85 46 SSW 1001,2 4,2 0,2
15.02.2020 08:00:00 10,1 9,9 63 34 81 44 S 1001,9 3,0 0,6
15.02.2020 07:00:00 9,8 9,7 48 26 68 37 S 1002,8 1,2 0,2
15.02.2020 06:00:00 9,6 9,5 41 22 50 27 S 1004,5 2,1 0,0
15.02.2020 05:00:00 8,5 8,3 29 16 - - S 1006,1 0,8 0,4
15.02.2020 04:00:00 8,7 8,3 31 17 - - S 1007,2 2,6 0,0
15.02.2020 03:00:00 8,5 8,4 35 19 46 25 S 1008,5 4,6 0,0
15.02.2020 02:00:00 8,7 8,6 37 20 - - S 1009,8 1,0 0,0
15.02.2020 01:00:00 8,4 8,2 22 12 - - S 1011,5 1,0 0,0
15.02.2020 00:00:00 7,8 7,6 13 7 100 54 S 1012,1 0,5 0,0
14.02.2020 23:00:00 8,4 8,1 22 12 - - SSW 1012,1 2,1 0,0
14.02.2020 22:00:00 8,4 8,1 26 14 - - S 1012,5 1,9 0,0
14.02.2020 21:00:00 8,7 8,4 24 13 - - SSW 1013,1 1,6 0,0
14.02.2020 20:00:00 8,9 8,6 26 14 - - SSW 1013,0 2,9 0,0
14.02.2020 19:00:00 9,0 8,8 26 14 - - SSW 1013,5 3,7 0,0
14.02.2020 18:00:00 8,8 8,5 31 17 - - SSW 1013,1 4,1 0,0
14.02.2020 17:00:00 9,1 8,9 31 17 - - SSW 1012,5 3,7 0,0
14.02.2020 16:00:00 9,2 8,9 29 16 - - S 1012,5 3,4 0,0
14.02.2020 15:00:00 8,9 8,3 26 14 61 33 SSW 1012,5 5 0,4
14.02.2020 14:00:00 9,8 9,5 52 28 67 36 SSW 1012,7 1,8 1,8
14.02.2020 13:00:00 9,5 9,2 54 29 68 37 SSW 1012,4 1,0 0,6
14.02.2020 12:00:00 9,4 8,6 55 30 68 37 S 1012,7 1,1 0,2
14.02.2020 11:00:00 9,5 7,9 54 29 70 38 S 1013,0 4,7 0,0
14.02.2020 10:00:00 9,2 7,4 57 31 68 37 S 1013,4 4,6 0,0
14.02.2020 09:00:00 8,7 7,4 46 25 57 31 S 1013,8 3,7 0,0
14.02.2020 08:00:00 8,4 7,3 37 20 - - S 1014,1 3,8 0,0
14.02.2020 07:00:00 8,4 7,3 35 19 46 25 SSW 1014,1 4,4 0,0
14.02.2020 06:00:00 7,3 6,5 26 14 - - SSE 1014,0 3,3 0,0
14.02.2020 05:00:00 6,2 5,3 18 10 - - SSE 1014,3 7 0,0
14.02.2020 04:00:00 5,0 3,9 16 9 - - SSE 1014,3 4,1 0,0
14.02.2020 03:00:00 4,7 3,1 13 7 - - SSE 1014,6 5 0,0
14.02.2020 02:00:00 5,2 4,1 13 7 - - SSW 1014,7 4,6 0,0
14.02.2020 01:00:00 4,4 1,8 5 3 - - ENE 1013,7 4,5 0,0
14.02.2020 00:00:00 6,5 4,5 16 9 - - W 1013,7 3,1 0,0
13.02.2020 23:00:00 6,1 3,0 13 7 - - WNW 1012,4 3,6 0,0
13.02.2020 22:00:00 6,6 3,9 16 9 - - WNW 1011,5 2,5 0,0
13.02.2020 21:00:00 6,3 3,4 15 8 - - NW 1009,9 9 0,0
13.02.2020 20:00:00 6,5 3,7 15 8 - - NW 1009,1 15 0,0
13.02.2020 19:00:00 7,4 4,2 21 11 - - NNW 1007,0 40 0,0
13.02.2020 18:00:00 8,5 5,4 28 15 - - WNW 1004,9 40 0,0
13.02.2020 17:00:00 8,9 5,2 31 17 46 25 WNW 1002,8 45 0,0
13.02.2020 16:00:00 9,6 5,4 34 18 50 27 WNW 1000,7 40 0,0
13.02.2020 15:00:00 9,0 4,8 37 20 48 26 WNW 999,2 40 0,0
13.02.2020 14:00:00 9,1 4,5 31 17 - - WNW 997,3 55 0,0
13.02.2020 13:00:00 9,2 5,5 29 16 48 26 WNW 995,0 35 0,0
13.02.2020 12:00:00 9,2 5,5 35 19 52 28 WNW 993,1 16 0,0
13.02.2020 11:00:00 8,7 6,3 29 16 - - W 990,9 3,3 0,0

tt = temperature
td = dewpoint
ff = wind speed
fx = gusts
dd = wind direction
ppp = reduced air pressure
vv = visibility
rr = precipitation

Next stations